When you browse on this site, cookies collect data to enhance your experience and personalize the content and advertising you see.
Visit our Privacy Policy to learn more. By continuing to use the site, you agree to this use of cookies and data.
  • în România
  • Lista ţărilor
  • Pe 7 zile
  • Temperatura apei
  • Hartă satelitară
  • Meteo pe hartă
  • Widget-uri
  • user-avatar
    Intrare

    Meteo pe oră la Akranes

    Astăzi, 22 Iulie, Luni

    Timp Temperatura Precipitaţii Vânt Presiune Umiditate
    00:00 +11°C° 0 mm 4 m/s 750 mmHg 88%
    01:00 +11°C° 0 mm 4 m/s 750 mmHg 89%
    02:00 +11°C° 0 mm 4 m/s 750 mmHg 90%
    03:00 +11°C° 0 mm 3 m/s 750 mmHg 89%
    04:00 +11°C° 0 mm 3 m/s 750 mmHg 89%
    05:00 +12°C° 0 mm 2 m/s 749 mmHg 88%
    06:00 +13°C° 0 mm 2 m/s 750 mmHg 85%
    07:00 +14°C° 0 mm 2 m/s 750 mmHg 82%
    08:00 +14°C° 0 mm 1 m/s 750 mmHg 79%
    09:00 +15°C° 0 mm 1 m/s 750 mmHg 75%
    10:00 +16°C° 0 mm 1 m/s 750 mmHg 72%
    11:00 +18°C° 0 mm 1 m/s 750 mmHg 68%
    12:00 +18°C° 0.1 mm 1 m/s 750 mmHg 68%
    13:00 +17°C° 0.1 mm 2 m/s 750 mmHg 68%
    14:00 +18°C° 0.1 mm 2 m/s 751 mmHg 68%
    15:00 +17°C° 0.1 mm 2 m/s 750 mmHg 69%
    16:00 +17°C° 0.1 mm 2 m/s 750 mmHg 71%
    17:00 +17°C° 0.1 mm 2 m/s 750 mmHg 73%
    18:00 +17°C° 0.1 mm 2 m/s 751 mmHg 74%
    19:00 +16°C° 0.1 mm 2 m/s 751 mmHg 76%
    20:00 +16°C° 0.1 mm 1 m/s 751 mmHg 78%
    21:00 +15°C° 0 mm 2 m/s 752 mmHg 82%
    22:00 +14°C° 0 mm 2 m/s 752 mmHg 85%
    23:00 +12°C° 0 mm 2 m/s 752 mmHg 89%

    Mâine, 23 Iulie, Marţi

    Timp Temperatura Precipitaţii Vânt Presiune Umiditate
    00:00 +12°C° 0 mm 2 m/s 752 mmHg 89%
    01:00 +12°C° 0 mm 2 m/s 753 mmHg 89%
    02:00 +12°C° 0 mm 2 m/s 753 mmHg 89%
    03:00 +12°C° 0 mm 2 m/s 753 mmHg 89%
    04:00 +12°C° 0 mm 2 m/s 753 mmHg 89%
    05:00 +12°C° 0 mm 2 m/s 753 mmHg 88%
    06:00 +13°C° 0 mm 2 m/s 753 mmHg 86%
    07:00 +14°C° 0 mm 1 m/s 753 mmHg 83%
    08:00 +15°C° 0 mm 1 m/s 754 mmHg 80%
    09:00 +15°C° 0 mm 1 m/s 754 mmHg 79%
    10:00 +15°C° 0 mm 1 m/s 754 mmHg 79%
    11:00 +15°C° 0 mm 0 m/s 754 mmHg 78%
    12:00 +15°C° 0.1 mm 1 m/s 755 mmHg 79%
    13:00 +15°C° 0.1 mm 1 m/s 755 mmHg 81%
    14:00 +15°C° 0.1 mm 2 m/s 755 mmHg 82%
    15:00 +15°C° 0.2 mm 2 m/s 755 mmHg 85%
    16:00 +14°C° 0.2 mm 1 m/s 755 mmHg 87%
    17:00 +14°C° 0.2 mm 1 m/s 755 mmHg 90%
    18:00 +14°C° 0.4 mm 1 m/s 755 mmHg 91%
    19:00 +13°C° 0.4 mm 1 m/s 755 mmHg 93%
    20:00 +13°C° 0.4 mm 1 m/s 756 mmHg 94%
    21:00 +13°C° 0.1 mm 2 m/s 756 mmHg 92%
    22:00 +12°C° 0.1 mm 2 m/s 756 mmHg 91%
    23:00 +11°C° 0.1 mm 3 m/s 756 mmHg 89%

    Poimâine, 24 Iulie, Miercuri

    Timp Temperatura Precipitaţii Vânt Presiune Umiditate
    00:00 +10°C° 0 mm 4 m/s 755 mmHg 90%
    01:00 +8°C° 0 mm 4 m/s 755 mmHg 90%
    02:00 +8°C° 0 mm 5 m/s 755 mmHg 91%
    03:00 +8°C° 0 mm 5 m/s 754 mmHg 90%
    04:00 +8°C° 0 mm 5 m/s 754 mmHg 89%
    05:00 +8°C° 0 mm 6 m/s 754 mmHg 88%
    06:00 +9°C° 0 mm 6 m/s 753 mmHg 85%
    07:00 +10°C° 0 mm 6 m/s 753 mmHg 82%
    08:00 +11°C° 0 mm 6 m/s 753 mmHg 79%
    09:00 +11°C° 0 mm 6 m/s 753 mmHg 76%
    10:00 +13°C° 0 mm 6 m/s 752 mmHg 74%
    11:00 +14°C° 0 mm 6 m/s 752 mmHg 71%
    12:00 +14°C° 0 mm 6 m/s 752 mmHg 70%
    13:00 +14°C° 0 mm 6 m/s 751 mmHg 69%
    14:00 +14°C° 0 mm 7 m/s 751 mmHg 69%
    15:00 +14°C° 0 mm 7 m/s 750 mmHg 69%
    16:00 +12°C° 0 mm 7 m/s 750 mmHg 69%
    17:00 +12°C° 0 mm 7 m/s 749 mmHg 69%
    18:00 +11°C° 0 mm 7 m/s 749 mmHg 72%
    19:00 +11°C° 0 mm 7 m/s 749 mmHg 74%
    20:00 +10°C° 0 mm 7 m/s 748 mmHg 77%
    21:00 +10°C° 0 mm 7 m/s 748 mmHg 79%
    22:00 +9°C° 0 mm 7 m/s 748 mmHg 81%
    23:00 +9°C° 0 mm 7 m/s 748 mmHg 83%

    25 Iulie, Joi

    Timp Temperatura Precipitaţii Vânt Presiune Umiditate
    00:00 +9°C° 0.4 mm 6 m/s 747 mmHg 86%
    01:00 +8°C° 0.4 mm 6 m/s 747 mmHg 89%
    02:00 +8°C° 0.4 mm 6 m/s 747 mmHg 92%
    03:00 +8°C° 0.5 mm 6 m/s 747 mmHg 92%
    04:00 +8°C° 0.5 mm 6 m/s 746 mmHg 92%
    05:00 +8°C° 0.5 mm 6 m/s 746 mmHg 92%
    06:00 +8°C° 1.4 mm 6 m/s 746 mmHg 93%
    07:00 +8°C° 1.4 mm 6 m/s 746 mmHg 93%
    08:00 +8°C° 1.4 mm 6 m/s 746 mmHg 93%
    09:00 +8°C° 1.8 mm 5 m/s 746 mmHg 93%
    10:00 +8°C° 1.8 mm 5 m/s 746 mmHg 93%
    11:00 +8°C° 1.8 mm 4 m/s 746 mmHg 93%
    12:00 +10°C° 0.7 mm 4 m/s 746 mmHg 92%
    13:00 +11°C° 0.7 mm 4 m/s 746 mmHg 90%
    14:00 +12°C° 0.7 mm 4 m/s 746 mmHg 89%
    15:00 +12°C° 0.4 mm 4 m/s 746 mmHg 89%
    16:00 +12°C° 0.4 mm 5 m/s 746 mmHg 90%
    17:00 +12°C° 0.4 mm 5 m/s 746 mmHg 90%
    18:00 +10°C° 0.9 mm 5 m/s 746 mmHg 91%
    19:00 +10°C° 0.9 mm 6 m/s 747 mmHg 91%
    20:00 +10°C° 0.9 mm 7 m/s 747 mmHg 92%
    21:00 +10°C° 0.6 mm 6 m/s 747 mmHg 92%
    22:00 +9°C° 0.6 mm 5 m/s 748 mmHg 93%
    23:00 +9°C° 0.6 mm 5 m/s 748 mmHg 93%

    26 Iulie, Vineri

    Timp Temperatura Precipitaţii Vânt Presiune Umiditate
    00:00 +9°C° 0.1 mm 5 m/s 748 mmHg 93%
    01:00 +9°C° 0.1 mm 5 m/s 749 mmHg 93%
    02:00 +9°C° 0.1 mm 5 m/s 749 mmHg 93%
    03:00 +10°C° 0.1 mm 4 m/s 749 mmHg 93%
    04:00 +11°C° 0.1 mm 4 m/s 750 mmHg 92%
    05:00 +11°C° 0.1 mm 3 m/s 750 mmHg 92%
    06:00 +11°C° 0.3 mm 3 m/s 750 mmHg 86%
    07:00 +12°C° 0.3 mm 3 m/s 750 mmHg 81%
    08:00 +13°C° 0.3 mm 3 m/s 751 mmHg 75%
    09:00 +13°C° 0.1 mm 3 m/s 751 mmHg 72%
    10:00 +14°C° 0.1 mm 3 m/s 751 mmHg 70%
    11:00 +16°C° 0.1 mm 2 m/s 751 mmHg 67%
    12:00 +15°C° 0.1 mm 2 m/s 751 mmHg 71%
    13:00 +14°C° 0.1 mm 2 m/s 751 mmHg 75%
    14:00 +14°C° 0.1 mm 2 m/s 751 mmHg 79%
    15:00 +14°C° 0 mm 1 m/s 751 mmHg 78%
    16:00 +14°C° 0 mm 1 m/s 752 mmHg 78%
    17:00 +14°C° 0 mm 1 m/s 752 mmHg 77%
    18:00 +14°C° 0 mm 1 m/s 752 mmHg 78%
    19:00 +13°C° 0 mm 1 m/s 752 mmHg 79%
    20:00 +13°C° 0 mm 1 m/s 752 mmHg 80%
    21:00 +13°C° 0.1 mm 2 m/s 752 mmHg 83%
    22:00 +12°C° 0.1 mm 2 m/s 753 mmHg 86%
    23:00 +12°C° 0.1 mm 2 m/s 753 mmHg 89%

    27 Iulie, Sâmbătă

    Timp Temperatura Precipitaţii Vânt Presiune Umiditate
    00:00 +12°C° 0 mm 2 m/s 753 mmHg 89%
    01:00 +10°C° 0 mm 2 m/s 752 mmHg 89%
    02:00 +10°C° 0 mm 2 m/s 752 mmHg 90%
    03:00 +10°C° 0 mm 2 m/s 752 mmHg 90%
    04:00 +10°C° 0 mm 2 m/s 752 mmHg 90%
    05:00 +11°C° 0 mm 1 m/s 752 mmHg 89%
    06:00 +12°C° 0 mm 1 m/s 752 mmHg 89%
    07:00 +12°C° 0 mm 1 m/s 752 mmHg 89%
    08:00 +12°C° 0 mm 1 m/s 752 mmHg 88%
    09:00 +12°C° 0 mm 1 m/s 752 mmHg 87%
    10:00 +12°C° 0 mm 1 m/s 752 mmHg 87%
    11:00 +12°C° 0 mm 1 m/s 752 mmHg 86%
    12:00 +12°C° 0.1 mm 1 m/s 752 mmHg 86%
    13:00 +13°C° 0.1 mm 1 m/s 752 mmHg 86%
    14:00 +13°C° 0.1 mm 1 m/s 752 mmHg 86%
    15:00 +13°C° 0 mm 1 m/s 752 mmHg 85%
    16:00 +13°C° 0 mm 2 m/s 753 mmHg 84%
    17:00 +13°C° 0 mm 2 m/s 753 mmHg 83%
    18:00 +13°C° 0.1 mm 1 m/s 753 mmHg 85%
    19:00 +12°C° 0.1 mm 1 m/s 753 mmHg 87%
    20:00 +12°C° 0.1 mm 1 m/s 753 mmHg 89%
    21:00 +12°C° 0.1 mm 1 m/s 754 mmHg 90%
    22:00 +11°C° 0.1 mm 1 m/s 754 mmHg 91%
    23:00 +11°C° 0.1 mm 1 m/s 754 mmHg 92%
    Arată mai mult